CAPE
9 15 11 1 3 9 4 0 9 8 2 5 5 7 2 0 0 0 0 2 0 0 0 0 0 0 0 0 0 6 0 0 0 0 0 0 0 0 1 2 16 19 24 17 28 31 7 187 112 50 160 217 110 115
3 5 5 0 1 1 8 8 7 4 7 3 6 9 4 1 0 0 0 17 17 4 0 0 0 0 0 0 0 0 4 5 40 2 0 0 0 0 1 3 10 0 0 6 31 157 247 116 81 2 31 87 125 227
6 4 4 1 0 0 0 14 17 16 13 8 5 13 9 0 0 0 0 1 5 12 0 0 0 0 0 0 0 0 0 0 1 32 6 4 20 5 10 24 17 11 13 11 1 20 0 21 30 0 1 22 57 135
5 0 1 2 0 1 2 0 12 25 25 23 8 12 12 5 1 0 0 1 1 3 0 0 0 0 0 0 0 0 0 0 0 6 26 6 6 34 23 26 20 37 44 20 27 30 0 30 41 39 46 0 0 33
3 1 4 2 2 0 0 0 0 18 20 28 15 12 12 6 4 0 1 0 1 4 2 0 0 0 0 0 0 0 0 0 4 23 17 8 15 30 17 44 17 34 12 22 27 28 32 34 13 11 0 0 0 34
0 1 6 5 8 6 9 2 1 12 19 21 29 12 16 3 0 4 1 1 0 5 7 0 0 0 0 0 0 0 0 2 5 21 14 22 19 40 45 34 47 43 0 4 6 2 3 0 0 0 0 0 31 225
0 0 0 0 1 0 11 15 16 7 4 11 14 17 16 0 3 4 0 0 0 17 20 2 0 0 0 0 0 0 0 7 26 21 38 37 37 72 64 66 46 44 36 2 0 0 0 0 0 0 0 0 80 240
2 0 0 2 6 7 10 6 4 4 0 2 7 11 10 3 1 0 0 0 0 21 23 7 0 0 0 31 5 4 14 12 42 56 78 60 92 79 85 47 34 31 38 21 2 0 0 21 31 55 38 4 46 486
4 0 0 1 10 6 0 4 4 4 0 0 1 5 15 7 2 1 1 0 0 8 4 11 0 2 128 108 146 30 45 48 24 70 29 118 35 47 15 47 49 59 37 26 95 57 43 16 97 195 177 122 269 579
7 0 0 0 5 2 1 3 0 0 0 0 3 23 14 6 11 2 0 35 17 24 2 2 0 11 90 191 187 81 74 52 85 27 67 71 44 134 138 150 90 101 39 31 47 14 12 141 161 235 379 380 446 688
4 2 0 0 0 3 6 0 0 0 0 8 28 16 18 3 24 29 23 19 21 5 2 0 0 1 21 51 60 99 96 99 54 66 20 94 39 63 173 162 279 260 179 156 106 128 147 168 188 273 539 837 922 970
0 0 0 0 0 1 4 1 0 2 23 22 16 3 4 40 26 21 14 26 11 10 11 10 21 12 39 68 115 139 0 2 11 19 55 134 125 610 515 510 492 456 413 341 332 365 318 281 270 338 540 779 967 964
1 4 2 3 5 1 2 1 0 11 1 20 23 31 30 23 20 13 11 18 17 55 100 174 130 42 17 62 67 96 76 11 71 130 88 247 452 473 577 557 448 558 511 463 429 353 372 381 425 463 446 486 707 797
8 0 6 2 13 3 6 0 0 1 9 28 3 0 5 8 13 20 25 55 154 143 95 152 4 56 52 45 0 7 74 56 9 8 89 368 549 466 231 247 317 286 340 286 253 346 338 382 251 276 434 637 668 571
3 2 5 2 2 3 3 1 1 5 26 2 2 1 2 21 51 22 32 26 47 112 102 94 85 66 43 33 54 75 0 0 47 15 62 231 289 127 74 6 0 75 135 263 254 188 35 4 3 43 203 244 256 255
3 4 13 1 1 3 5 5 4 18 25 4 7 1 4 50 69 71 39 74 137 149 225 62 37 44 27 6 22 22 29 3 96 107 171 92 154 5 5 41 1 60 182 201 190 300 120 59 128 41 8 13 23 6
4 29 1 1 3 3 2 22 17 20 12 22 4 10 0 1 2 4 9 80 151 195 108 178 136 14 0 23 45 141 49 62 71 148 273 329 340 263 303 85 112 203 148 193 353 343 201 145 74 54 6 11 7 2
21 7 0 1 0 7 19 0 21 5 13 10 12 22 5 1 0 15 0 2 89 150 225 165 318 168 97 79 105 264 266 118 95 247 289 329 326 295 266 183 160 112 139 108 137 142 158 169 114 93 35 15 0 1
23 3 0 0 12 2 1 2 4 5 12 7 1 0 0 0 6 0 0 0 28 192 247 300 206 111 244 365 190 251 174 224 269 216 175 154 187 150 202 204 188 192 128 91 86 92 43 35 18 4 0 0 0 0
0 0 0 1 3 11 21 18 16 9 4 3 1 3 1 2 8 7 88 136 180 30 84 48 130 182 216 245 123 167 348 476 217 164 154 67 11 89 219 224 390 279 121 77 78 95 73 26 13 22 0 0 0 0
0 0 0 0 1 0 6 5 12 9 11 7 0 0 0 1 9 17 84 16 31 36 45 54 124 205 451 433 388 510 539 513 355 329 123 0 125 137 30 25 31 19 30 14 23 36 30 64 37 36 24 28 18 8
2 0 2 4 3 6 9 4 18 15 7 8 16 7 10 22 16 19 18 5 2 4 0 25 182 339 307 313 394 344 274 217 50 0 0 0 0 11 11 8 13 1 4 1 10 30 19 19 4 6 1 1 0 0
0 8 6 1 3 2 0 2 8 5 5 0 1 1 15 28 43 73 16 19 38 60 41 27 194 304 303 225 137 82 58 17 0 0 0 0 0 0 0 0 0 0 0 0 0 2 1 0 0 2 1 0 0 0
0 1 1 2 2 1 0 1 0 0 0 2 0 1 19 58 62 23 14 44 116 238 321 386 379 202 312 181 104 47 21 1 0 0 0 1 0 0 0 0 0 0 0 0 0 2 1 0 1 4 0 0 0 0
0 0 1 0 1 2 0 11 4 0 5 18 8 17 13 14 10 12 13 43 77 196 295 239 167 168 176 264 162 223 53 49 22 21 8 12 7 7 0 0 0 0 0 0 0 0 0 0 0 0 0 0 0 0
1 0 0 25 48 10 11 12 11 9 8 5 12 5 19 9 0 5 43 61 124 135 275 293 162 1 5 125 93 83 77 52 23 32 19 7 8 15 9 1 0 0 0 0 0 0 0 0 0 0 0 0 0 0
5 25 30 54 43 36 36 25 24 21 12 10 15 18 10 8 6 23 62 151 185 101 99 36 55 19 18 9 22 37 41 16 13 2 1 0 0 0 0 0 0 0 0 0 0 0 0 0 0 0 0 0 0 0
11 12 12 6 11 13 6 13 9 2 9 8 8 5 2 2 0 80 208 148 6 1 13 5 8 5 1 0 0 6 3 0 0 0 0 0 0 0 0 0 0 0 0 0 0 0 0 0 0 0 0 0 0 0
4 4 19 14 15 11 17 18 12 19 13 1 5 8 32 48 126 181 274 61 6 10 13 7 1 0 0 0 0 0 0 0 0 2 7 14 13 0 0 0 0 0 0 0 0 0 0 0 0 0 0 0 0 0
24 36 29 29 14 10 18 34 24 9 13 15 13 12 8 8 27 40 68 48 24 4 0 0 1 1 0 0 0 0 0 0 0 0 0 0 0 0 0 0 0 0 0 0 0 0 0 0 0 0 0 0 0 0
22 38 36 32 10 16 7 4 9 11 11 11 17 3 8 16 14 13 19 13 19 16 13 7 1 0 0 0 0 0 0 0 0 0 0 0 0 0 0 0 0 0 0 0 0 0 0 0 0 0 0 0 1 0
22 18 6 8 14 9 4 3 7 2 5 4 8 23 23 18 5 2 0 1 9 23 0 1 2 0 0 0 0 0 0 0 0 0 0 0 0 0 0 0 0 0 0 0 0 0 0 0 0 0 0 1 1 1
8 5 8 14 4 5 10 7 14 14 25 27 21 21 11 16 13 13 1 0 0 0 5 0 0 0 0 0 0 0 0 0 0 0 0 0 0 0 0 0 0 0 0 0 0 0 0 0 0 0 0 2 3 5
CIN
-6 -6 -8 -13 -8 -5 -10 -2 -5 -5 -16 -17 -16 -12 -10 0 0 0 -1 -1 -1 0 0 0 0 0 0 0 0 -4 -1 0 0 0 0 0 0 0 -2 -3 -6 -4 -5 -5 -7 -5 -4 -10 -6 -4 -22 -18 -4 -2
-21 -18 -16 0 -13 -16 -10 -12 -11 -10 -14 -18 -18 -14 -11 -14 -5 0 0 -5 -1 0 0 0 0 0 0 0 0 0 -2 -4 -5 -3 0 0 0 0 -2 -5 -9 0 0 -5 -6 -8 -5 -7 -27 -3 -39 -24 -9 -2
-19 -10 -9 -9 0 0 0 -11 -11 -14 -10 -14 -13 -6 -11 -9 -11 0 0 -1 -3 -1 0 0 0 0 0 0 0 0 0 0 -4 -5 -7 -5 -4 -4 -5 -9 -5 -5 -7 -4 -1 -12 0 -3 -6 0 0 -3 -10 -3
-17 -11 -24 -22 -10 -7 -14 0 -7 -9 -7 -12 -11 -10 -7 -12 -24 0 0 -1 -1 -1 0 0 0 0 0 0 0 0 0 0 0 -3 -3 -5 -4 -5 -6 -9 -8 -6 -2 -5 -4 -3 0 -4 -3 -3 -5 0 0 -17
-11 -18 -19 -16 -8 -11 -4 0 0 -10 -16 -10 -14 -13 -12 -10 -16 0 -1 0 -2 -1 -1 0 0 0 0 0 0 0 0 0 -3 -2 -2 -4 -6 -8 -13 -7 -7 -8 -12 -5 -5 -3 -4 -4 -12 -4 -1 0 0 -14
0 -10 -22 -17 -17 -20 -11 -8 -5 -11 -14 -13 -8 -14 -13 -14 -14 -3 0 -2 0 -3 -1 0 0 0 0 0 0 0 0 -3 -4 -5 -4 -4 -17 -6 -7 -7 -6 -6 0 -6 -5 -4 -4 0 0 0 0 0 -33 -2
0 0 0 0 -6 -2 -8 -5 -8 -13 -14 -12 -11 -20 -14 -24 -10 -2 0 0 0 -2 -1 -1 0 -1 0 0 0 0 0 -3 -3 -2 -2 -3 -5 -3 -7 -5 -4 -4 -6 -3 0 0 0 0 0 0 0 0 -20 -15
-3 0 0 -12 -9 -18 -8 -9 -7 -14 -29 -26 -20 -31 -34 -33 -20 0 0 0 0 0 0 -1 0 0 0 -3 -4 -3 -6 -7 -4 -6 -3 -4 -4 -9 -9 -7 -4 -5 -6 -5 -1 0 0 -5 -29 -28 -49 -33 -40 -2
-3 0 0 -6 -8 -5 -4 -8 -10 -20 0 0 -30 -27 -6 -4 -1 -1 0 0 0 -2 0 -1 0 -5 -2 -4 -5 -13 -7 -5 -10 -6 -3 -3 -26 -3 -3 -8 -3 -4 -3 -2 -5 -5 -6 -7 -6 -1 -2 -7 -4 -2
-4 0 0 0 -11 -23 -8 -10 0 0 0 0 -2 0 0 -4 -18 -16 0 0 -1 0 0 0 0 -2 -5 -1 -5 -6 -5 -13 -1 -5 -4 -5 -15 -11 -7 -5 -5 -19 -3 -4 -2 -5 -4 -3 -3 -1 -2 -2 -4 -3
-6 -4 0 0 0 -17 -9 -7 0 0 0 -2 0 0 -4 -15 -1 -1 0 0 0 0 0 0 0 -1 -8 -4 -3 -7 -9 -5 -3 -5 -4 -3 -26 -21 -22 -3 -2 -2 -2 -1 -1 -2 -2 -1 -4 -2 -3 -1 -1 -1
0 0 0 0 0 -3 -7 -8 0 -1 -1 -4 -6 -2 -4 0 0 0 -1 -1 -1 -2 -2 -3 -6 -5 -4 -3 -2 -5 0 -15 -3 -26 -19 -3 -31 -2 -4 -1 -5 -2 -1 -2 -1 -1 -1 -2 0 -1 -1 -1 -1 -2
-9 -5 -11 -15 -15 -8 -11 -16 0 -8 -14 -2 0 -1 0 -1 0 0 -1 -1 -1 -2 -1 -3 0 -3 -3 -2 -2 -8 0 -1 -177 -2 -3 -4 -24 -4 -4 -13 -9 -1 -1 -1 0 0 -1 -1 -1 -2 -1 -1 -1 -1
-1 -1 -11 -9 -15 -14 -20 -1 0 -12 -5 0 -2 0 -1 -1 -2 -5 -8 -6 -3 -2 -1 -1 -36 -1 -2 -1 0 0 -2 -5 -12 -18 -5 -10 0 -1 -12 -2 -2 -1 -1 -2 -5 0 -1 -2 -1 -8 -23 -2 -4 -10
-4 -10 -8 -10 -12 -21 -26 -27 -31 -2 -1 0 0 -1 -1 -4 -3 -4 -5 -3 -2 -1 -1 -1 -1 -1 -1 -9 -2 -1 0 0 -8 -69 -2 -4 -3 -3 -8 -4 0 -8 -4 -1 -1 -1 -19 -33 -42 -26 -5 -2 -1 -1
-11 -10 -3 -17 -11 -18 -15 -11 -1 -1 -1 -1 0 0 -6 0 -1 0 -1 0 -2 -2 -2 -1 -3 -1 -1 -3 -1 -1 -9 0 0 -1 -1 -8 -3 -10 -3 -15 -13 -9 -1 -2 -1 -1 -26 -23 -1 -8 -29 -10 -24 -33
-2 -2 -22 -22 -22 -20 -17 -1 -1 0 -1 0 -4 -1 0 0 0 -4 -6 -1 0 0 0 -1 -1 -1 0 -19 -2 -1 -1 -4 -2 -1 -1 0 0 -1 0 -3 -1 0 -3 -3 -4 0 0 -10 0 -1 -27 -31 -27 -24
-3 -11 0 -17 -1 -2 -1 -2 0 -1 0 -1 0 0 0 -1 0 0 0 -1 0 0 -3 -4 -4 -2 -3 -2 -2 -1 -1 -2 -5 -1 -1 0 0 0 0 -17 -19 -3 -2 -3 -1 -1 -1 0 -1 -1 -6 -5 0 0
-1 -2 0 0 -4 -4 0 -2 0 0 0 -1 -1 0 -1 0 0 0 0 0 -8 0 -2 -1 -3 -1 -2 -1 -7 -1 -6 -16 0 -7 -17 -9 -4 -7 -33 -2 -1 -1 -2 0 -1 -2 -6 -1 -2 -12 0 0 0 0
0 0 0 -2 -6 0 0 0 -1 0 0 0 -1 0 0 0 -1 -3 0 0 0 -31 -3 -3 0 -2 -1 -5 -12 -1 -1 -1 -24 -3 -1 -9 -26 -13 -1 -1 -2 0 -2 -1 -3 -4 -1 -2 -3 -1 -3 0 0 0
0 0 0 0 -1 0 0 0 -1 -1 0 0 -1 0 0 -8 -2 0 -1 -5 -2 0 0 0 -8 -3 -1 -1 -1 0 0 -2 -1 -1 -6 -1 -5 -3 -1 -2 -2 -7 -4 -12 -4 -4 -6 -2 -6 -15 -26 -15 -4 -2
-1 0 -1 0 0 0 0 0 0 -2 -2 -1 0 -1 -1 0 0 -1 -4 -1 -2 -1 -1 -4 0 -3 -1 0 0 0 -2 -4 -9 0 0 0 0 -1 -1 -1 -2 -1 -2 -2 -2 -3 -13 -7 -7 -2 -1 -1 0 0
0 -2 -1 -1 0 0 0 -1 0 0 0 0 0 -1 0 -1 -1 -4 -2 0 -1 -4 -12 -29 -5 0 0 -1 -1 -1 -4 -2 0 0 0 0 0 0 0 0 0 0 0 0 0 -1 -1 0 0 -3 -1 0 0 0
-2 0 0 0 -1 0 0 0 0 0 0 0 0 -1 -1 -1 -1 0 0 -1 0 -2 0 0 0 -1 0 -1 -1 -1 -2 -5 0 0 0 -3 0 0 0 0 0 0 0 0 0 -2 -1 0 -1 -2 0 0 0 -1
0 0 0 0 0 0 0 0 -2 0 -2 -1 -1 -1 0 -2 -1 0 0 0 -1 0 -1 -3 -1 -1 -1 -1 -1 -1 -18 -15 -1 -1 -2 -2 -2 -4 0 0 0 0 0 0 0 0 0 0 0 0 0 0 0 0
0 0 0 -1 -1 -1 -2 -1 -1 -2 -3 -1 -1 -1 -1 -1 -1 -4 0 -1 0 0 0 -1 -1 -3 -5 -2 -1 0 -1 -4 -14 -3 -3 -3 -5 -3 -2 -2 0 0 0 0 -1 0 0 0 0 0 0 0 0 0
-7 -2 -4 -2 -2 -1 -2 -1 -2 -1 -1 -2 -2 -2 -1 0 0 0 0 0 0 -3 -3 -19 -9 -2 -3 -4 -2 -2 -2 -3 -6 -2 -2 -1 -1 0 0 0 0 0 0 0 0 0 0 0 0 0 0 0 0 0
-1 -2 -10 -7 -8 -4 -1 -1 0 -2 -1 -1 -3 -11 0 0 -1 0 0 -4 -48 -22 -3 -21 -24 -8 -23 0 0 -2 -1 0 0 0 0 0 0 0 0 0 0 0 0 0 0 0 0 0 0 0 0 0 0 0
-14 -7 -2 -1 0 -3 0 0 0 0 -1 -1 -1 0 0 -2 -2 -1 -2 -5 -2 -2 -2 -2 -2 0 0 0 0 0 0 0 0 -1 -3 -2 -1 0 0 0 0 0 0 0 0 0 0 0 0 0 0 0 0 0
-2 -2 -1 -1 -2 -1 -1 -1 -1 -1 -2 -1 -1 -2 -3 -2 -2 -1 -2 -2 -2 -2 0 -1 -2 -2 0 0 0 0 0 0 0 0 0 0 0 0 0 0 0 0 0 0 0 0 0 0 0 0 0 0 -1 0
-4 -3 -2 -3 -3 -2 -7 -10 -4 -4 -1 -2 -2 -3 -2 -2 -3 -2 -3 -2 -2 -3 -3 -1 -1 0 0 0 0 0 0 0 0 0 0 0 0 0 0 0 0 0 0 0 0 0 0 0 0 0 0 0 -2 -1
-3 -1 -3 -4 -4 -5 -9 -15 -7 -12 -11 -6 -7 -4 -4 -5 -2 -1 0 -2 -1 -3 0 -1 -1 0 0 0 0 0 0 0 0 0 0 0 0 0 0 0 0 0 0 0 0 0 0 0 0 0 0 -2 -2 -2
-8 -10 -9 -5 -11 -7 -3 -4 -1 -2 -2 -2 -3 -4 -4 -3 -1 -2 -1 0 0 0 -2 0 0 0 0 0 0 0 0 0 0 0 0 0 0 0 0 0 0 0 0 0 0 0 0 0 0 0 -1 -1 -1 -1
Wind_Speed
30 30 30 29 28 27 27 27 27 26 26 25 25 23 22 22 21 23 23 20 23 25 30 27 28 27 27 26 27 23 24 24 28 27 30 31 32 31 30 27 25 24 23 23 22 27 30 13 14 22 20 20 22 24
29 30 29 28 27 27 27 26 26 25 25 25 25 23 21 21 20 22 21 15 19 23 28 29 28 28 29 31 31 28 30 28 22 26 27 31 32 31 30 31 21 29 29 29 27 21 17 17 17 19 20 22 22 20
31 30 28 28 28 27 26 26 25 25 25 24 24 23 21 20 19 20 24 23 22 26 31 27 28 25 22 25 26 29 28 29 31 31 32 32 33 29 30 26 29 26 21 26 29 25 25 21 18 20 18 20 21 21
25 26 28 29 28 27 27 26 25 24 23 23 22 22 21 19 19 20 23 21 21 24 28 23 19 23 22 21 22 25 29 33 30 32 33 35 35 27 33 34 28 23 19 20 24 24 25 21 19 21 18 19 21 20
23 24 26 27 26 26 26 25 24 23 23 22 22 21 20 19 19 22 24 23 19 20 26 27 34 34 25 23 23 24 25 28 31 32 34 37 36 37 35 32 33 27 27 28 29 25 22 22 22 23 22 18 22 20
21 23 25 25 25 25 24 23 22 21 21 20 20 20 19 18 19 21 19 13 17 18 24 27 20 26 24 23 19 21 24 26 30 35 37 39 42 36 39 41 35 31 30 32 33 29 27 26 27 25 20 19 17 22
21 22 23 25 24 24 22 20 19 18 18 19 18 18 18 17 19 20 21 20 22 20 22 26 26 19 18 20 21 20 19 24 24 26 33 36 38 37 39 42 33 27 24 25 25 24 23 22 24 20 14 11 15 16
19 21 22 23 22 20 20 18 15 15 16 16 16 17 18 19 23 25 22 15 16 17 21 24 25 28 18 21 19 15 18 19 22 25 24 23 28 29 33 36 31 33 31 29 29 25 24 22 23 20 17 15 12 11
15 17 19 21 21 19 20 16 13 12 13 13 14 16 17 18 18 19 6 6 10 16 20 22 25 26 18 21 17 10 13 18 21 22 23 22 28 27 25 28 28 24 20 20 16 17 20 19 22 22 17 7 9 8
13 16 19 21 21 21 18 14 10 9 10 11 13 16 17 14 6 7 10 12 15 14 15 20 22 21 25 22 21 5 4 17 15 19 10 22 15 40 37 28 15 16 18 21 21 21 19 15 18 17 18 10 1 3
15 19 24 25 23 22 15 9 5 6 7 12 15 14 14 9 8 11 13 12 11 16 16 18 18 33 31 29 28 25 24 25 23 19 22 12 31 37 33 19 22 21 27 27 26 25 24 21 19 17 16 15 11 8
23 25 27 28 27 23 14 3 1 2 12 13 15 16 14 13 13 14 13 16 17 16 15 24 27 29 29 27 27 25 18 23 20 24 17 28 24 10 10 19 19 20 21 21 20 19 17 19 22 22 15 10 7 7
24 26 26 27 29 30 2 8 13 16 17 18 17 17 14 16 24 25 27 24 23 22 20 22 22 24 26 26 25 24 22 25 17 10 24 20 5 4 9 12 15 19 21 23 21 19 23 22 24 24 19 12 9 10
23 25 24 23 3 10 12 12 11 17 19 17 17 20 21 22 24 27 26 20 21 20 20 20 20 23 24 25 23 21 21 20 19 21 19 10 9 10 11 14 16 17 17 16 16 16 18 19 20 22 24 15 13 11
23 23 15 12 16 17 20 23 27 27 21 22 23 23 26 24 22 20 22 21 21 21 20 20 21 20 23 22 22 19 16 20 20 16 11 10 9 12 15 17 17 16 17 16 16 12 15 16 16 15 10 7 6 8
26 22 26 31 31 30 31 31 29 24 21 21 22 21 21 22 20 20 21 21 22 22 21 22 20 22 22 19 21 21 18 15 12 13 11 12 14 16 17 17 18 20 18 16 13 9 12 13 14 12 10 9 9 12
30 22 32 33 31 31 32 27 25 23 21 20 20 21 23 21 22 21 22 21 19 20 24 22 22 21 18 19 18 8 8 10 12 12 12 13 13 13 13 12 12 9 9 10 10 11 14 18 18 17 14 12 12 13
20 29 32 33 32 28 25 21 21 20 21 20 20 20 20 22 21 21 20 21 20 21 21 19 18 18 16 15 13 9 9 11 11 10 9 10 7 8 8 9 7 12 12 11 13 14 14 14 14 14 15 13 12 13
29 33 34 33 25 22 21 22 20 18 18 18 19 19 20 21 21 22 22 22 23 20 18 17 17 16 14 10 6 9 11 8 8 5 3 5 6 4 3 7 12 14 14 14 16 17 17 16 17 15 15 14 14 13
29 31 32 27 19 19 18 17 18 17 16 16 17 17 19 21 20 19 21 22 23 17 15 13 11 9 9 9 16 10 7 8 10 12 6 3 5 3 9 8 12 19 20 19 18 16 16 18 18 18 18 17 16 15
26 24 25 20 17 18 16 15 17 16 15 15 15 17 20 21 21 23 23 21 15 12 11 10 9 14 14 12 7 7 6 5 4 13 7 4 5 5 10 11 12 13 18 13 13 18 16 18 19 19 18 18 17 17
22 28 19 18 15 15 16 17 15 14 15 15 13 17 21 22 12 9 14 11 14 15 18 15 12 11 9 4 10 14 13 15 17 14 11 9 9 10 12 11 12 13 13 15 18 18 18 16 17 17 17 17 16 17
24 19 16 16 15 15 15 12 15 13 15 15 14 17 17 15 14 18 13 10 10 13 15 15 14 10 5 11 8 8 23 24 20 13 15 13 13 13 14 13 13 14 17 18 18 18 17 16 15 17 16 16 17 16
15 14 14 14 14 15 15 17 17 16 15 16 17 17 14 15 19 13 14 13 7 7 10 12 12 6 13 14 14 19 22 23 23 24 22 16 15 13 14 16 17 19 18 19 19 18 18 17 16 17 17 16 16 18
15 16 18 16 17 16 15 17 18 17 17 18 17 16 12 14 8 13 14 9 5 6 6 5 3 5 11 16 15 8 9 15 10 12 14 18 18 20 19 20 20 19 18 18 18 18 18 18 18 18 18 19 19 18
17 17 17 12 14 16 15 13 14 14 15 13 12 14 14 8 6 7 9 9 7 6 7 6 10 11 6 14 12 11 14 13 10 11 12 13 15 17 18 18 18 18 19 19 19 18 18 19 19 18 17 17 17 17
13 10 12 14 11 11 12 10 12 14 14 14 15 12 12 10 8 10 13 10 9 8 8 6 6 8 8 9 12 12 12 13 13 14 15 15 15 16 17 18 18 19 20 19 19 19 19 18 18 18 17 17 17 17
11 9 9 9 8 7 10 13 13 14 14 13 13 11 13 13 16 16 16 16 15 14 14 15 17 11 11 11 12 13 14 11 12 15 13 16 18 19 19 18 19 18 18 18 19 19 20 20 20 19 19 17 17 17
13 11 9 8 10 10 10 10 10 14 15 16 24 21 17 16 18 21 19 20 20 17 11 9 11 17 17 11 11 12 13 14 15 16 14 15 16 20 21 19 16 14 16 17 18 20 21 20 21 19 19 18 18 16
16 17 15 9 4 2 3 3 12 10 18 21 23 22 20 18 13 12 16 13 10 10 10 11 12 11 12 13 15 15 17 18 18 18 18 18 19 20 19 19 17 17 17 17 16 15 16 15 13 14 16 19 20 21
21 27 18 3 4 2 2 5 3 3 8 18 22 22 21 21 20 8 9 11 11 12 12 11 13 14 15 16 17 17 18 19 20 19 19 19 19 19 19 18 18 18 18 18 18 19 20 20 19 18 18 19 19 18
15 9 5 14 4 11 13 19 19 13 16 20 20 20 19 19 11 11 12 12 13 14 12 13 17 19 19 19 19 18 19 19 19 19 19 19 19 19 19 19 19 19 20 19 18 18 19 18 18 19 19 19 20 19
20 10 9 7 11 11 11 11 11 15 17 15 12 11 11 10 11 12 13 13 14 15 17 18 19 19 18 18 18 17 17 18 18 18 19 19 19 20 21 21 21 20 20 20 20 20 19 19 17 18 14 13 11 10
Wind_Direction
298 297 296 296 296 296 294 293 294 296 297 300 301 302 303 305 311 301 296 302 292 289 285 291 291 289 288 287 287 307 289 287 285 279 278 279 280 282 284 282 281 285 289 291 295 297 297 318 321 308 327 328 329 329
298 297 296 295 293 291 290 291 291 293 296 298 299 300 302 304 309 307 298 318 306 293 287 297 294 291 286 284 288 287 284 293 298 286 282 282 280 280 283 280 280 278 283 292 297 314 317 328 323 327 326 327 328 331
297 295 294 292 290 288 287 287 288 289 291 294 297 299 299 302 306 304 298 301 303 297 297 294 295 295 286 284 285 282 283 286 283 289 286 286 284 281 279 277 282 288 285 289 289 291 300 305 313 322 327 326 329 331
302 297 294 292 289 286 284 285 286 288 288 292 294 297 296 299 302 301 297 302 302 302 299 305 311 301 300 294 282 279 281 281 287 288 279 277 277 284 278 281 284 292 294 284 292 293 293 302 312 313 321 323 325 328
302 299 296 293 290 287 285 283 284 285 285 288 292 295 296 297 300 297 295 296 294 299 301 303 299 296 294 295 290 284 278 279 278 278 276 272 274 275 279 280 274 283 280 285 289 296 301 303 308 310 312 314 318 319
302 299 295 295 293 288 286 284 284 283 282 286 290 293 295 297 300 300 307 302 296 294 305 304 310 303 301 297 284 283 282 277 277 275 273 272 269 272 273 271 276 279 282 285 287 294 296 300 302 306 307 310 314 315
304 300 297 293 290 290 287 286 286 286 285 287 289 292 294 295 293 289 299 301 302 301 302 305 309 306 309 299 290 283 277 280 276 275 271 270 269 271 266 266 274 284 287 289 292 296 296 302 306 309 312 306 312 318
305 298 294 290 291 288 287 287 287 287 288 290 290 292 295 295 292 292 288 293 306 299 303 302 300 302 305 305 297 287 280 273 270 274 279 266 270 266 269 267 272 276 282 286 289 291 294 301 304 309 308 306 311 314
310 304 295 286 283 284 280 282 286 289 292 294 295 297 298 296 297 300 315 309 309 304 304 301 297 301 324 309 305 294 291 280 280 264 263 272 269 266 268 271 273 279 285 290 299 301 298 306 310 308 313 301 305 304
307 304 290 275 274 273 274 280 290 296 297 298 300 298 297 303 344 350 321 307 307 308 305 297 295 299 292 293 286 141 134 211 292 190 235 205 220 232 249 263 279 280 284 287 291 294 301 311 313 316 319 325 298 155
301 283 261 254 258 260 274 282 296 312 307 296 293 294 310 322 318 312 310 310 320 315 305 297 197 224 233 229 225 238 204 189 194 174 168 162 208 210 200 267 267 274 270 269 276 284 288 298 306 315 315 315 319 321
265 255 245 231 237 250 273 278 115 302 291 289 285 285 286 290 298 297 301 283 249 252 225 210 221 223 236 238 224 231 191 217 181 225 146 193 230 287 269 262 268 271 273 280 288 295 306 301 294 295 310 322 325 328
211 212 215 217 216 205 145 129 133 265 268 261 261 262 276 269 232 224 201 208 200 206 213 214 217 214 215 216 220 222 213 199 175 270 228 261 19 253 294 286 281 275 273 275 287 297 288 298 290 288 295 302 318 314
216 206 213 218 58 111 119 122 122 245 236 247 248 242 238 221 214 206 208 225 228 233 230 223 227 211 211 193 203 204 223 233 235 220 245 311 310 314 303 287 283 279 291 300 302 316 312 310 307 301 278 284 297 308
201 209 191 97 109 114 124 134 154 193 213 203 199 205 204 214 224 232 237 236 232 226 220 215 211 205 197 211 209 217 228 227 224 266 319 315 340 293 282 284 290 289 284 293 283 314 343 346 335 310 339 351 358 351
168 187 175 156 165 169 168 171 178 190 196 196 199 209 214 219 222 225 229 225 222 218 209 203 202 186 174 197 201 195 223 242 299 338 320 293 283 282 252 252 236 216 239 256 279 358 2 331 5 22 14 352 341 2
165 182 162 159 163 162 164 175 184 188 193 195 206 208 210 218 222 222 220 223 228 217 199 198 189 197 200 200 225 237 307 337 337 321 301 288 289 251 239 247 228 275 291 304 340 35 51 58 51 42 36 19 10 17
184 167 166 160 158 167 178 191 187 191 194 202 208 211 216 217 219 218 215 218 216 209 209 211 221 209 221 229 245 260 322 323 320 304 324 351 303 326 339 357 344 15 19 7 24 38 35 31 23 24 33 20 10 12
166 160 157 158 173 179 179 178 178 188 193 201 209 209 195 204 209 209 213 212 208 213 222 218 217 217 225 235 283 236 208 286 316 287 262 221 197 203 315 359 15 22 20 20 27 32 36 36 43 34 29 32 33 25
161 157 158 172 186 174 176 183 189 192 188 187 196 201 197 190 189 188 190 189 185 204 221 233 232 235 228 233 180 218 272 225 199 188 207 256 208 323 2 357 12 41 48 43 35 30 29 39 38 46 50 45 40 32
164 173 175 186 183 182 191 199 197 189 195 188 197 185 177 179 180 178 166 173 217 222 221 222 220 186 182 193 231 229 260 317 262 178 12 336 232 303 355 351 355 10 30 359 359 36 21 37 56 62 70 73 55 32
164 153 173 174 189 190 188 183 189 200 179 184 183 186 165 152 178 193 186 200 197 202 197 202 208 210 221 306 9 32 42 37 43 34 28 15 350 341 340 313 331 335 331 352 25 43 36 8 22 33 34 38 38 26
153 169 183 183 179 177 180 202 173 176 167 162 157 152 150 154 163 160 168 176 179 187 198 198 198 216 347 25 3 9 66 68 56 33 37 24 6 344 342 333 325 333 4 12 10 12 18 38 25 27 39 26 17 28
168 183 182 178 179 172 175 162 164 166 168 167 161 159 161 159 149 160 157 160 187 209 209 209 214 355 40 41 34 53 63 73 72 88 128 24 5 342 343 346 357 10 10 12 15 16 23 28 54 22 17 28 27 12
175 168 162 159 156 151 164 159 167 166 165 161 162 167 180 176 187 164 164 192 276 311 326 341 302 343 32 49 40 333 253 185 340 359 8 94 64 45 32 26 10 356 355 5 2 11 14 17 19 21 20 11 10 16
154 158 163 172 154 158 171 171 171 169 169 173 175 176 175 218 256 244 225 214 269 286 329 336 15 32 338 37 6 346 16 337 302 274 319 316 323 343 356 345 353 350 350 355 8 17 21 24 24 31 35 36 31 27
162 176 172 174 188 196 184 179 174 177 174 171 170 190 202 219 245 223 189 243 247 251 244 272 268 355 300 305 325 310 312 319 307 323 321 318 321 313 322 330 348 344 3 4 2 8 25 31 28 28 29 31 28 26
193 214 207 220 226 238 201 186 183 184 180 189 186 195 187 186 172 160 164 165 176 178 173 171 177 230 266 247 260 293 313 237 170 177 129 48 4 351 344 11 7 358 357 347 329 15 22 23 19 20 21 23 23 24
159 175 209 230 221 229 235 225 222 180 178 171 124 150 166 171 158 131 154 157 139 155 204 267 251 125 110 249 259 264 263 255 262 256 217 253 7 351 348 338 28 57 35 27 13 13 12 14 12 17 19 21 22 27
126 128 34 27 12 263 295 286 19 9 45 62 69 64 61 44 17 147 161 198 228 291 290 303 298 276 263 269 314 318 333 336 331 322 337 342 335 332 334 352 14 19 17 19 30 36 40 39 45 42 30 18 16 8
130 111 129 94 43 58 187 190 205 263 357 42 63 65 65 70 66 193 249 252 239 212 214 248 299 302 301 312 309 347 7 8 9 3 345 4 7 359 358 11 21 21 18 15 17 15 9 14 15 20 21 19 17 20
149 174 334 15 238 188 182 146 148 178 158 90 93 100 108 127 266 274 260 229 214 212 297 235 327 347 350 14 19 19 5 14 10 1 347 353 5 4 13 18 15 12 11 13 16 15 12 18 18 15 16 15 13 17
125 188 200 223 192 198 208 209 206 167 144 165 199 202 213 228 225 240 173 281 246 283 346 352 358 8 17 12 17 27 28 23 28 30 25 14 6 357 353 357 5 9 10 12 13 14 17 18 23 20 33 40 46 44